Waarnemingen

Advertentie
Mijn weer
Soderstjerna, Zweden (2667): temperatuur & dauwpunt: 15.08.2018 06:00:00 - 21.08.2018 06:00:00 (CEST)Soderstjerna, Zweden (2667): windsnelheid & windstoten: 15.08.2018 06:00:00 - 21.08.2018 06:00:00 (CEST)Soderstjerna, Zweden (2667): windrichting: 15.08.2018 06:00:00 - 21.08.2018 06:00:00 (CEST)Soderstjerna, Zweden (2667): luchtdruk: 15.08.2018 06:00:00 - 21.08.2018 06:00:00 (CEST)Soderstjerna, Zweden (2667): zicht: 15.08.2018 06:00:00 - 21.08.2018 06:00:00 (CEST)Soderstjerna, Zweden (2667): neerslag: 15.08.2018 06:00:00 - 21.08.2018 06:00:00 (CEST)
Datum & Tijd tt [°C] td [°C] ff [km/u] ff [kn] fx [km/u] fx [kn] dd ppp [hPa] vv [km] rr [mm]
21.08.2018 06:00:00 - - - - - - - - - -
21.08.2018 05:00:00 - - - - - - - - - -
21.08.2018 04:00:00 - - - - - - - - - -
21.08.2018 03:00:00 - - - - - - - - - -
21.08.2018 02:00:00 - - - - - - - - - -
21.08.2018 01:00:00 - - - - - - - - - -
21.08.2018 00:00:00 - - - - - - - - - -
20.08.2018 23:00:00 - - - - - - - - - -
20.08.2018 22:00:00 - - - - - - - - - -
20.08.2018 21:00:00 - - - - - - - - - -
20.08.2018 20:00:00 - - - - - - - - - -
20.08.2018 19:00:00 - - - - - - - - - -
20.08.2018 18:00:00 - - - - - - - - - -
20.08.2018 17:00:00 - - - - - - - - - -
20.08.2018 16:00:00 - - - - - - - - - -
20.08.2018 15:00:00 21,8 15,9 36 19 43 23 WZW 1009,3 35 0,0
20.08.2018 14:00:00 21,0 17,2 25 14 43 23 WZW 1009,2 40 0,0
20.08.2018 13:00:00 20,3 17,3 36 19 43 23 WZW 1008,9 40 0,0
20.08.2018 12:00:00 19,9 17,5 32 18 43 23 WZW 1008,9 40 0,0
20.08.2018 11:00:00 20,1 17,3 32 18 43 23 WZW 1008,9 40 0,0
20.08.2018 10:00:00 19,5 17,5 29 16 36 19 WZW 1009,0 30 0,0
20.08.2018 09:00:00 19,3 17,4 25 14 40 21 WZW 1009,2 24 0,0
20.08.2018 08:00:00 19,4 17,4 29 16 40 21 WZW 1009,1 20 0,0
20.08.2018 07:00:00 20,0 17,0 29 16 36 19 ZW 1009,8 25 0,0
20.08.2018 06:00:00 19,7 17,1 25 14 32 18 ZW 1010,2 22 0,0
20.08.2018 05:00:00 19,7 16,9 25 14 36 19 ZW 1010,8 21 0,0
20.08.2018 04:00:00 19,6 16,8 25 14 32 18 ZW 1011,7 25 0,0
20.08.2018 03:00:00 19,6 17,0 25 14 36 19 ZW 1012,5 20 0,0
20.08.2018 02:00:00 19,4 17,4 25 14 32 18 ZW 1012,8 21 0,0
20.08.2018 01:00:00 19,4 16,8 25 14 29 16 ZW 1013,2 30 0,0
20.08.2018 00:00:00 19,5 16,5 18 10 25 14 ZW 1013,8 35 0,0
19.08.2018 23:00:00 19,5 16,7 22 12 25 14 WZW 1014,2 35 0,0
19.08.2018 22:00:00 19,5 16,9 18 10 29 16 WZW 1014,7 29 0,0
19.08.2018 21:00:00 19,6 17,0 22 12 32 18 WZW 1015,1 27 0,0
19.08.2018 20:00:00 19,8 17,4 22 12 29 16 WZW 1015,6 26 0,0
19.08.2018 19:00:00 20,0 17,4 22 12 29 16 WZW 1015,8 25 0,0
19.08.2018 18:00:00 20,2 17,2 25 14 32 18 WZW 1016,2 26 0,0
19.08.2018 17:00:00 20,5 17,1 25 14 36 19 ZW 1016,5 35 0,0
19.08.2018 16:00:00 20,7 16,9 29 16 40 21 WZW 1016,7 35 0,0
19.08.2018 15:00:00 21,5 17,1 25 14 36 19 WZW 1016,9 35 0,0
19.08.2018 14:00:00 21,0 16,4 25 14 40 21 WZW 1017,2 30 0,0
19.08.2018 13:00:00 20,5 16,3 32 18 43 23 WZW 1017,2 35 0,0
19.08.2018 12:00:00 20,1 16,5 29 16 40 21 WZW 1017,3 30 0,0
19.08.2018 11:00:00 19,5 16,5 29 16 36 19 WZW 1017,4 29 0,0
19.08.2018 10:00:00 19,2 16,4 29 16 40 21 WZW 1017,4 26 0,0
19.08.2018 09:00:00 18,8 16,2 29 16 40 21 WZW 1017,2 25 0,0
19.08.2018 08:00:00 18,7 16,1 29 16 40 21 WZW 1016,8 26 0,0
19.08.2018 07:00:00 18,8 15,9 32 18 40 21 WZW 1016,8 30 0,0
19.08.2018 06:00:00 18,9 15,8 32 18 43 23 WZW 1016,7 26 0,0
19.08.2018 05:00:00 19,4 16,2 29 16 40 21 WZW 1016,7 27 0,0
19.08.2018 04:00:00 19,6 15,7 29 16 43 23 WZW 1016,7 35 0,0
19.08.2018 03:00:00 19,8 16,2 32 18 40 21 WZW 1016,7 30 0,0
19.08.2018 02:00:00 19,9 16,1 29 16 43 23 WZW 1016,7 30 0,0
19.08.2018 01:00:00 20,3 15,9 32 18 43 23 WZW 1016,9 35 0,0
19.08.2018 00:00:00 20,2 15,6 29 16 40 21 WZW 1017,2 40 0,0
18.08.2018 23:00:00 20,0 15,8 29 16 40 21 WZW 1017,4 45 0,0
18.08.2018 22:00:00 19,9 15,7 29 16 40 21 WZW 1017,5 40 0,0
18.08.2018 21:00:00 19,9 15,5 29 16 40 21 WZW 1017,8 45 0,0
18.08.2018 20:00:00 19,9 15,3 29 16 40 21 WZW 1017,8 45 0,0
18.08.2018 19:00:00 19,9 15,5 32 18 43 23 WZW 1017,6 35 0,0
18.08.2018 18:00:00 20,3 15,5 36 19 43 23 WZW 1017,4 40 0,0
18.08.2018 17:00:00 20,9 15,2 32 18 43 23 ZW 1017,8 40 0,0
18.08.2018 16:00:00 21,1 14,8 29 16 40 21 ZW 1018,1 35 0,0
18.08.2018 15:00:00 21,0 12,2 29 16 36 19 ZW 1018,3 40 0,0
18.08.2018 14:00:00 20,9 14,1 25 14 32 18 ZW 1018,8 35 0,0
18.08.2018 13:00:00 20,7 14,4 25 14 32 18 WZW 1018,8 35 0,0
18.08.2018 12:00:00 20,0 14,6 22 12 29 16 WZW 1018,9 30 0,0
18.08.2018 11:00:00 20,3 14,0 18 10 25 14 WZW 1019,1 35 0,0
18.08.2018 10:00:00 18,8 15,1 11 6 14 8 WZW 1019,2 35 0,0
18.08.2018 09:00:00 17,3 14,0 7 4 11 6 W 1019,1 35 0,0
18.08.2018 08:00:00 16,0 13,3 7 4 11 6 W 1019,0 40 0,0
18.08.2018 07:00:00 15,8 13,3 4 2 7 4 NW 1018,7 45 0,0
18.08.2018 06:00:00 15,0 13,0 7 4 14 8 NNW 1018,2 45 0,0
18.08.2018 05:00:00 14,9 13,1 7 4 14 8 NW 1018,0 45 0,0
18.08.2018 04:00:00 15,6 13,4 7 4 18 10 NW 1017,5 45 0,0
18.08.2018 03:00:00 16,0 14,4 7 4 14 8 NW 1017,4 45 0,0
18.08.2018 02:00:00 16,8 14,3 7 4 14 8 NW 1017,5 45 0,0
18.08.2018 01:00:00 17,3 14,6 11 6 14 8 NW 1017,3 50 0,0
18.08.2018 00:00:00 18,2 14,9 7 4 14 8 NW 1017,2 50 0,0
17.08.2018 23:00:00 18,7 15,0 4 2 14 8 WNW 1016,9 50 0,6
17.08.2018 22:00:00 19,7 14,1 4 2 22 12 NW 1016,5 45 0,0
17.08.2018 21:00:00 20,4 13,8 14 8 22 12 NNW 1015,8 50 0,0
17.08.2018 20:00:00 21,9 14,8 14 8 25 14 NNW 1015,4 45 0,0
17.08.2018 19:00:00 21,5 18,9 7 4 18 10 W 1015,0 30 0,0
17.08.2018 18:00:00 21,1 19,4 7 4 18 10 ZZW 1015,1 24 0,0
17.08.2018 17:00:00 21,7 19,1 14 8 18 10 Z 1014,6 30 0,0
17.08.2018 16:00:00 22,1 19,3 14 8 18 10 Z 1014,8 24 0,0
17.08.2018 15:00:00 22,3 19,1 14 8 22 12 Z 1015,2 30 0,0
17.08.2018 14:00:00 22,4 19,0 14 8 22 12 Z 1015,6 40 0,0
17.08.2018 13:00:00 22,5 18,7 14 8 25 14 ZZW 1015,7 30 0,0
17.08.2018 12:00:00 21,9 18,5 22 12 25 14 Z 1015,7 35 0,0
17.08.2018 11:00:00 21,7 18,7 14 8 18 10 Z 1015,8 35 0,0
17.08.2018 10:00:00 21,0 18,4 14 8 22 12 ZZW 1015,8 35 0,0
17.08.2018 09:00:00 20,6 18,2 14 8 25 14 Z 1015,6 30 0,0
17.08.2018 08:00:00 20,5 17,9 22 12 25 14 Z 1015,4 35 0,0
17.08.2018 07:00:00 20,3 17,9 22 12 25 14 Z 1015,2 30 0,0
17.08.2018 06:00:00 20,3 17,9 22 12 29 16 Z 1015,1 35 0,0
17.08.2018 05:00:00 20,4 18,0 25 14 29 16 Z 1015,1 40 0,0
17.08.2018 04:00:00 20,5 18,1 25 14 32 18 Z 1015,2 40 0,0
17.08.2018 03:00:00 20,8 18,0 29 16 32 18 Z 1015,3 40 0,0
17.08.2018 02:00:00 20,3 18,2 29 16 32 18 ZZO 1015,6 35 0,0
17.08.2018 01:00:00 20,3 18,2 25 14 32 18 ZZO 1015,9 40 0,0
17.08.2018 00:00:00 20,2 18,1 25 14 32 18 ZZO 1016,2 30 0,0
16.08.2018 23:00:00 19,8 18,5 18 10 25 14 ZZO 1016,3 18 0,0
16.08.2018 22:00:00 20,0 18,1 18 10 25 14 ZZO 1016,5 10 0,0
16.08.2018 21:00:00 20,1 18,0 22 12 25 14 ZZO 1016,5 14 0,0
16.08.2018 20:00:00 20,2 18,4 11 6 18 10 Z 1016,4 11 0,0
16.08.2018 19:00:00 20,5 19,0 14 8 22 12 Z 1016,6 8 0,0
16.08.2018 18:00:00 21,1 19,2 18 10 22 12 Z 1017,0 8 0,0
16.08.2018 17:00:00 21,3 19,4 18 10 25 14 Z 1017,3 8 0,0
16.08.2018 16:00:00 21,7 18,9 22 12 25 14 Z 1017,2 12 0,0
16.08.2018 15:00:00 21,8 18,8 18 10 22 12 Z 1017,7 15 0,0
16.08.2018 14:00:00 21,9 19,1 14 8 22 12 Z 1018,0 12 0,0
16.08.2018 13:00:00 21,6 19,2 14 8 18 10 Z 1018,1 11 0,0
16.08.2018 12:00:00 21,0 18,4 14 8 18 10 Z 1018,2 30 0,0
16.08.2018 11:00:00 20,6 18,2 11 6 18 10 Z 1018,2 17 0,0
16.08.2018 10:00:00 20,5 18,6 11 6 14 8 Z 1018,2 12 0,0
16.08.2018 09:00:00 20,2 18,7 4 2 7 4 OZO 1017,9 - 0,0
16.08.2018 08:00:00 18,2 17,0 4 2 7 4 ONO 1018,0 23 0,0
16.08.2018 07:00:00 17,0 16,0 4 2 7 4 NO 1018,0 40 0,0
16.08.2018 06:00:00 17,2 16,2 0 0 7 4 N 1017,7 26 0,0
16.08.2018 05:00:00 16,7 15,6 4 2 7 4 NO 1017,7 45 0,0
16.08.2018 04:00:00 17,1 15,6 0 0 4 2 N 1017,6 45 0,0
16.08.2018 03:00:00 17,9 16,1 0 0 4 2 N 1017,5 45 0,0
16.08.2018 02:00:00 17,8 15,4 0 0 7 4 N 1017,3 40 0,0
16.08.2018 01:00:00 18,4 16,0 4 2 11 6 WNW 1017,3 50 0,0
16.08.2018 00:00:00 19,0 15,5 4 2 14 8 NW 1017,0 40 0,0
15.08.2018 23:00:00 19,2 16,1 11 6 14 8 WZW 1016,9 45 0,0
15.08.2018 22:00:00 20,3 15,5 7 4 14 8 WNW 1016,6 45 0,0
15.08.2018 21:00:00 20,7 15,5 11 6 25 14 W 1016,2 50 0,0
15.08.2018 20:00:00 20,6 16,4 22 12 29 16 W 1015,5 45 0,0
15.08.2018 19:00:00 21,7 15,1 25 14 29 16 WZW 1014,9 45 0,0
15.08.2018 18:00:00 21,5 15,6 18 10 32 18 WZW 1014,7 50 0,0
15.08.2018 17:00:00 21,6 15,4 25 14 40 21 WZW 1014,5 45 0,0
15.08.2018 16:00:00 22,1 14,5 32 18 43 23 WZW 1014,1 40 0,0
15.08.2018 15:00:00 22,2 14,6 25 14 36 19 WZW 1013,7 45 0,0
15.08.2018 14:00:00 21,6 15,9 25 14 32 18 WZW 1013,7 45 0,0
15.08.2018 13:00:00 20,5 15,9 25 14 32 18 WZW 1013,2 40 0,0
15.08.2018 12:00:00 20,2 16,2 18 10 22 12 WZW 1013,0 40 0,0
15.08.2018 11:00:00 20,0 15,8 18 10 22 12 W 1012,8 45 0,0
15.08.2018 10:00:00 18,8 15,3 11 6 18 10 WNW 1012,4 45 0,0
15.08.2018 09:00:00 19,0 15,5 11 6 22 12 WNW 1011,6 45 0,0
15.08.2018 08:00:00 17,7 15,5 14 8 22 12 WNW 1011,0 45 0,0
15.08.2018 07:00:00 16,9 15,2 14 8 18 10 W 1010,7 45 0,0
15.08.2018 06:00:00 16,7 14,7 7 4 22 12 NW 1010,0 45 0,0

tt = temperatuur
td = dauwpunt
ff = windsnelheid
fx = windstoten
dd = windrichting
ppp = luchtdruk
vv = zicht
rr = neerslag

Weerstations in de omgeving